Wetbulb
56.53 56.33 55.75 55.73 55.56 55.89 55.63 55.30 55.24 55.47 55.79 55.97 55.85 55.64 56.17 56.75 56.28 49.84 47.14 53.62 54.20 61.41 61.17 53.99 53.67 53.69 49.62 45.15 42.98 42.57 33.79 31.03 33.62 36.44 39.67 44.25 42.93 47.32 50.27 47.68 49.65 51.01 54.22 60.14 71.46
56.04 55.84 55.50 55.43 55.12 55.23 55.43 55.34 55.59 55.69 55.63 56.08 55.83 56.10 56.76 56.92 50.34 48.77 56.44 60.01 60.11 60.52 53.76 51.69 50.30 51.48 43.63 41.11 41.21 38.04 31.03 33.29 39.90 41.03 41.13 44.51 43.24 46.18 46.55 46.98 47.54 50.46 59.99 70.22 70.82
55.38 55.49 55.12 54.85 55.27 54.63 54.71 54.97 55.12 55.17 55.55 55.56 55.88 56.94 57.34 56.22 47.87 50.73 60.44 61.62 60.57 59.36 54.47 53.27 52.03 49.23 41.50 39.74 38.58 35.85 34.48 39.34 41.21 43.20 43.44 43.98 44.18 46.90 45.57 42.86 46.60 48.83 55.35 65.33 69.33
55.07 55.09 55.00 54.60 54.84 55.05 54.67 54.80 55.19 55.57 55.25 55.43 56.40 57.64 57.50 51.88 37.04 53.54 61.18 61.97 61.10 57.38 54.54 50.97 47.58 42.76 40.47 38.86 41.16 35.46 41.37 41.00 41.18 43.37 41.50 41.76 44.39 44.30 44.90 45.54 49.36 50.59 56.16 64.75 61.89
55.01 54.87 54.68 54.30 54.27 54.62 54.68 55.07 54.96 55.16 55.20 55.48 57.00 57.82 52.82 46.69 46.22 55.48 63.81 61.03 57.58 54.17 50.39 46.69 43.04 40.46 36.83 39.98 42.09 37.69 40.38 43.17 44.09 43.06 41.26 42.81 41.46 42.65 43.31 47.66 49.75 50.61 55.08 59.28 59.94
55.03 54.53 54.32 54.37 54.56 54.54 54.39 55.04 55.02 55.12 55.39 56.13 57.38 57.48 50.00 41.40 51.99 55.04 57.23 55.18 54.12 49.99 49.17 45.36 42.30 44.12 39.92 40.10 38.34 42.43 41.88 42.71 42.60 41.90 41.48 40.43 41.31 41.07 44.11 47.65 48.17 50.02 54.74 56.38 59.01
55.79 55.45 54.47 54.38 54.43 54.82 54.96 55.32 55.16 55.24 55.73 56.65 57.61 54.32 49.39 45.69 53.18 52.71 54.02 50.76 50.44 51.82 47.77 47.92 46.57 43.68 42.77 40.40 42.15 42.78 38.72 40.39 40.36 41.25 40.54 42.16 41.28 40.94 44.57 46.24 46.89 48.74 50.85 53.03 56.93
55.75 55.22 54.49 54.94 55.00 54.88 55.10 55.24 55.24 55.22 55.91 57.05 57.04 51.30 46.90 55.70 53.44 50.10 50.42 50.70 51.95 51.14 50.08 50.03 47.66 43.53 41.12 42.50 41.47 37.44 35.62 31.38 38.91 42.91 43.58 40.89 35.46 43.27 45.60 45.45 44.88 46.48 48.72 52.63 55.90
55.65 54.90 54.79 54.61 54.92 54.94 54.85 54.77 55.02 55.68 56.36 57.17 50.56 48.88 45.45 56.98 50.77 53.33 52.37 50.27 51.32 51.47 49.99 52.62 46.29 42.09 42.38 35.41 32.47 33.22 30.15 32.78 36.68 42.37 42.18 41.43 38.01 44.54 47.60 45.83 45.78 44.84 45.70 51.59 58.97
55.37 54.67 54.40 54.55 54.59 54.47 54.21 54.40 54.62 54.14 55.09 55.90 53.24 44.83 47.89 48.88 52.17 53.59 52.30 52.44 50.03 49.15 46.95 44.92 40.86 37.44 35.15 32.76 27.38 30.36 30.96 33.29 33.85 38.41 39.79 38.06 38.89 43.28 45.76 45.57 45.44 44.87 44.42 46.98 56.14
55.55 54.55 54.30 54.38 54.51 54.14 50.49 48.58 44.75 43.64 49.42 45.23 46.88 48.98 51.07 54.28 54.42 52.08 53.86 50.88 49.53 45.60 38.18 40.81 35.54 32.79 36.42 36.82 38.90 36.74 35.14 34.42 38.09 40.63 39.12 38.25 38.38 41.41 43.78 44.20 44.61 44.74 42.84 44.23 47.33
55.12 54.57 54.34 54.34 54.32 53.47 48.30 47.33 48.57 48.25 42.99 50.02 50.20 50.68 52.90 53.43 48.26 50.82 52.74 46.34 44.34 39.34 40.79 36.88 32.90 39.26 41.22 40.49 38.51 36.85 34.26 34.10 37.65 40.56 39.02 38.15 37.97 41.26 43.02 43.46 44.84 44.80 45.01 43.77 46.18
54.47 54.12 54.10 54.02 53.29 49.07 47.90 50.58 53.01 50.40 41.60 47.46 50.95 50.10 50.31 50.36 47.19 47.64 50.55 47.66 43.20 39.03 38.94 35.01 39.18 44.35 41.46 39.30 37.90 36.61 35.19 35.24 34.91 39.02 39.03 37.51 35.21 38.00 42.63 43.95 45.19 45.14 45.26 44.37 46.52
54.28 53.69 53.52 52.81 48.84 47.56 47.31 51.21 52.04 51.78 34.53 42.10 45.16 49.38 48.21 47.43 45.27 52.96 52.06 47.57 42.81 39.48 39.62 37.94 41.92 41.89 40.83 39.03 40.24 33.18 40.09 39.43 37.29 34.21 28.22 37.71 27.02 35.24 38.46 39.88 42.36 43.65 43.71 44.12 50.70
54.04 53.63 53.28 53.02 44.73 46.64 49.50 49.27 50.72 48.31 23.48 42.93 45.00 50.95 48.92 45.53 45.47 47.85 51.84 46.94 41.78 41.30 39.99 38.52 40.28 39.65 38.04 39.28 42.42 37.13 41.82 39.00 38.52 34.08 29.24 31.13 27.25 33.29 35.96 37.32 40.11 41.13 43.04 43.85 45.80
53.81 53.26 52.69 49.11 46.91 49.46 51.27 49.35 50.19 34.76 25.94 39.58 44.28 43.63 43.23 44.71 43.97 46.47 47.06 48.70 46.93 41.85 41.77 40.62 44.96 42.12 40.66 43.45 43.26 44.19 39.06 36.59 32.10 28.66 23.53 29.16 29.25 30.65 32.91 35.81 37.98 41.04 42.28 44.57 46.39
53.59 52.76 50.71 50.70 46.26 48.97 49.45 48.24 36.74 26.20 41.19 38.70 39.84 42.82 42.04 40.19 40.79 42.77 40.36 38.34 36.32 34.06 33.94 38.01 38.67 41.83 44.39 38.66 40.77 38.38 31.94 25.73 23.20 19.90 22.21 31.57 30.11 32.12 37.89 41.24 41.73 41.08 42.79 44.49 47.71
52.03 50.82 50.81 51.59 47.95 50.21 47.87 39.57 29.12 38.47 38.12 42.66 42.30 42.05 38.69 40.80 40.16 41.02 37.98 34.50 40.68 38.03 34.37 33.22 30.87 38.24 43.00 39.04 35.79 36.21 33.60 26.75 18.93 19.47 23.70 34.21 26.58 32.83 40.84 44.32 45.30 46.32 46.41 43.79 46.46
49.93 48.57 50.08 52.70 52.53 49.06 43.06 30.97 31.95 37.27 42.85 40.93 41.17 37.55 37.09 39.40 39.26 37.09 35.19 35.87 40.68 39.87 34.58 35.43 33.94 42.14 42.62 42.38 41.22 36.82 31.37 37.05 31.28 29.03 25.63 27.93 32.37 38.70 42.08 43.11 44.28 44.69 45.85 45.14 45.21
44.47 46.54 49.31 53.25 50.59 46.57 38.81 35.84 37.67 44.95 45.63 43.77 34.75 38.45 32.88 35.63 35.29 34.16 34.34 40.64 40.71 43.28 42.01 39.83 32.86 39.70 41.29 42.40 41.37 38.54 39.84 29.49 29.45 22.16 19.80 27.41 30.82 30.85 37.13 39.72 42.88 43.13 43.89 45.66 47.44
44.75 44.24 50.00 50.62 48.75 42.60 33.98 35.66 41.38 46.92 46.72 42.98 38.46 36.42 36.93 35.27 36.02 34.07 35.13 39.91 42.50 42.01 42.54 40.71 38.03 34.99 38.75 36.17 33.44 35.07 32.09 31.54 29.86 29.25 22.67 23.39 28.54 38.21 38.19 41.04 41.90 42.95 44.40 45.17 47.57
41.90 39.71 49.44 49.21 39.78 37.11 35.53 40.76 44.63 45.42 46.39 44.23 42.93 39.73 36.79 37.38 37.17 37.59 34.93 38.68 43.34 43.58 38.09 41.48 38.47 32.87 33.87 40.24 42.26 39.22 35.95 33.18 26.08 26.95 30.49 28.25 28.28 40.58 41.48 45.08 44.65 43.45 44.49 45.89 47.16
40.71 40.95 49.39 47.40 35.12 34.87 38.80 41.81 44.01 44.22 42.53 41.49 39.59 41.22 40.14 36.14 33.71 38.13 37.65 42.24 43.48 42.41 40.87 42.15 36.71 30.14 29.79 33.59 40.43 37.14 38.73 36.90 34.20 33.71 29.21 26.91 28.29 42.46 42.99 43.33 44.86 43.42 44.40 45.71 47.01
42.40 38.70 42.19 41.00 40.58 36.96 36.47 38.05 39.63 45.28 43.20 42.34 40.76 41.29 36.94 35.34 36.83 34.85 37.09 40.63 43.63 43.73 47.38 44.48 38.33 34.07 29.46 32.73 37.34 34.06 36.47 37.43 35.49 31.26 31.55 31.54 33.57 39.06 41.62 41.44 44.13 44.71 44.56 45.60 46.22
42.09 39.07 40.40 36.07 39.03 39.14 37.64 39.01 38.45 38.34 42.43 41.33 38.36 38.95 36.78 30.61 33.87 34.32 36.52 37.83 41.08 45.14 44.99 41.79 35.26 36.73 36.02 37.07 37.60 37.02 36.27 36.52 34.79 35.37 32.34 33.22 33.64 37.76 40.90 42.25 44.30 45.85 46.22 45.99 47.09
40.48 40.78 41.47 38.71 39.59 37.89 38.65 36.76 38.40 40.01 38.28 37.68 36.10 38.40 37.80 32.52 35.39 34.32 36.92 36.70 35.33 40.95 41.61 42.65 34.64 37.14 34.75 37.10 37.05 35.51 37.19 37.80 37.48 36.33 36.22 35.51 34.58 41.08 43.74 44.93 44.25 44.89 45.77 45.93 48.41
45.44 47.96 44.02 38.88 37.62 36.82 36.01 38.65 39.78 40.84 41.96 41.71 40.76 37.78 36.07 38.48 40.89 40.49 41.18 40.82 39.75 38.18 38.88 39.29 36.39 33.43 30.63 34.02 34.68 29.56 35.17 36.89 37.48 38.73 37.75 35.54 39.10 42.86 42.37 43.65 44.10 44.25 45.54 46.18 48.52
MSLP
1018.87 1018.49 1018.16 1017.88 1017.63 1017.37 1017.15 1016.95 1016.69 1016.36 1016.01 1015.65 1015.35 1015.10 1014.78 1014.41 1013.87 1013.61 1013.13 1012.15 1011.96 1011.61 1011.52 1011.21 1010.84 1010.98 1010.90 1011.19 1011.29 1011.67 1012.87 1012.99 1012.20 1011.24 1010.15 1008.93 1008.60 1007.41 1006.82 1006.39 1005.65 1004.81 1004.04 1002.49 1003.08
1018.94 1018.47 1018.13 1017.78 1017.50 1017.25 1017.05 1016.85 1016.56 1016.28 1015.92 1015.65 1015.39 1015.05 1014.71 1014.31 1013.98 1012.99 1011.84 1011.79 1011.85 1011.80 1011.67 1011.74 1011.59 1011.42 1011.46 1011.39 1011.45 1011.97 1012.77 1012.42 1011.40 1010.71 1009.87 1008.42 1008.45 1007.37 1006.92 1006.48 1005.36 1004.52 1003.36 1002.01 1002.60
1018.95 1018.48 1018.09 1017.79 1017.48 1017.27 1017.01 1016.80 1016.54 1016.25 1015.93 1015.58 1015.31 1015.01 1014.61 1014.31 1013.75 1012.37 1011.53 1011.70 1011.81 1011.89 1012.04 1012.08 1011.97 1011.91 1011.91 1011.71 1011.55 1011.76 1011.97 1011.36 1010.61 1009.92 1009.53 1008.49 1007.85 1007.30 1006.58 1006.08 1005.55 1004.95 1004.62 1004.84 1005.34
1018.98 1018.49 1018.13 1017.83 1017.54 1017.23 1017.03 1016.84 1016.62 1016.31 1016.03 1015.64 1015.27 1014.79 1014.33 1014.23 1013.60 1011.92 1011.43 1011.58 1011.79 1011.92 1012.08 1012.01 1012.01 1012.10 1012.21 1012.12 1011.83 1011.88 1011.32 1010.92 1010.36 1009.71 1009.33 1008.57 1007.45 1006.56 1006.33 1005.60 1005.30 1004.85 1004.68 1004.98 1005.96
1018.99 1018.54 1018.12 1017.79 1017.52 1017.25 1017.00 1016.72 1016.50 1016.33 1016.11 1015.73 1015.29 1014.75 1014.30 1013.75 1012.65 1011.24 1011.24 1011.56 1011.75 1011.85 1011.96 1011.91 1012.03 1012.33 1012.50 1012.39 1012.01 1011.69 1011.41 1010.90 1010.38 1009.95 1009.11 1008.13 1007.42 1006.67 1005.55 1005.15 1005.07 1004.98 1004.84 1004.84 1005.36
1018.92 1018.47 1018.05 1017.65 1017.28 1016.97 1016.78 1016.63 1016.47 1016.33 1016.11 1015.74 1015.26 1014.89 1014.64 1013.33 1011.46 1011.15 1011.47 1011.77 1011.81 1011.81 1011.54 1011.50 1011.69 1011.81 1012.12 1012.24 1012.31 1011.71 1011.36 1010.85 1010.21 1009.73 1008.82 1008.15 1006.82 1006.38 1005.02 1004.82 1005.02 1004.95 1005.34 1005.47 1004.79
1018.81 1018.37 1017.91 1017.43 1017.01 1016.49 1016.19 1016.07 1016.01 1016.07 1015.99 1015.74 1015.37 1015.13 1014.50 1012.49 1011.29 1011.30 1011.52 1011.45 1011.34 1011.45 1011.33 1011.14 1011.29 1011.59 1011.88 1012.07 1011.86 1011.66 1011.37 1010.77 1010.19 1009.83 1009.24 1008.03 1006.14 1005.43 1005.27 1004.88 1005.35 1005.51 1005.58 1005.25 1004.87
1018.54 1018.11 1017.68 1017.25 1016.82 1016.28 1015.87 1015.80 1015.70 1015.66 1015.63 1015.52 1015.34 1015.17 1013.75 1011.53 1011.39 1011.42 1011.30 1011.11 1010.74 1010.75 1010.81 1010.70 1010.97 1011.43 1011.92 1012.06 1011.95 1012.04 1011.91 1011.59 1010.50 1009.93 1009.39 1008.81 1006.67 1005.37 1005.78 1005.29 1005.48 1005.45 1005.46 1005.01 1004.64
1018.41 1017.89 1017.44 1016.89 1016.33 1015.86 1015.55 1015.52 1015.33 1015.37 1015.43 1015.41 1015.45 1015.04 1013.08 1011.35 1011.25 1010.57 1010.69 1010.87 1010.60 1010.48 1010.35 1010.45 1010.93 1011.72 1012.27 1012.76 1013.17 1012.85 1012.61 1011.77 1010.90 1009.98 1009.85 1009.54 1007.75 1004.94 1006.01 1005.61 1005.29 1005.38 1005.32 1005.14 1004.74
1018.17 1017.66 1017.15 1016.69 1016.18 1015.63 1015.05 1014.99 1015.00 1015.19 1015.36 1015.15 1015.05 1014.91 1012.64 1011.29 1010.70 1010.29 1010.29 1010.38 1010.66 1010.81 1010.92 1011.09 1011.82 1012.33 1013.15 1013.63 1013.69 1013.09 1012.60 1011.73 1011.11 1010.28 1009.70 1009.50 1007.72 1006.10 1006.19 1005.57 1004.74 1005.14 1004.93 1004.94 1004.50
1018.01 1017.35 1016.80 1016.27 1015.84 1015.55 1014.99 1015.07 1015.28 1015.07 1014.80 1014.17 1013.86 1013.34 1011.87 1010.87 1010.18 1010.13 1010.09 1010.33 1010.67 1011.14 1011.67 1011.88 1012.67 1012.94 1012.70 1012.66 1012.67 1012.59 1012.19 1011.45 1010.56 1009.95 1009.88 1009.00 1007.97 1006.93 1005.98 1005.30 1004.10 1004.74 1004.64 1004.64 1004.46
1017.76 1017.01 1016.41 1015.95 1015.56 1015.34 1015.38 1014.73 1013.92 1013.59 1013.61 1013.00 1012.74 1012.41 1011.20 1010.75 1010.45 1009.89 1009.97 1010.75 1010.95 1011.53 1011.87 1012.61 1012.38 1011.79 1011.76 1011.75 1011.90 1011.76 1011.51 1010.92 1010.20 1009.54 1009.77 1009.17 1007.95 1006.76 1005.63 1004.95 1003.64 1004.25 1004.13 1004.01 1003.77
1017.50 1016.64 1016.00 1015.47 1015.27 1015.41 1015.05 1013.91 1012.99 1013.24 1013.71 1012.40 1011.67 1011.17 1010.45 1010.52 1010.40 1009.86 1010.12 1010.42 1010.97 1011.61 1011.95 1012.50 1011.34 1010.97 1011.11 1011.05 1011.09 1010.72 1010.61 1010.24 1009.79 1009.11 1008.97 1008.55 1007.36 1006.27 1004.69 1004.46 1003.07 1003.59 1003.40 1003.11 1003.06
1017.21 1016.35 1015.69 1015.24 1015.36 1015.03 1014.29 1013.23 1013.07 1013.54 1013.63 1012.34 1011.28 1010.41 1010.16 1010.40 1010.48 1009.87 1009.87 1010.51 1011.01 1011.43 1011.67 1011.67 1010.82 1010.77 1010.56 1010.39 1010.49 1009.88 1009.71 1009.43 1009.40 1009.35 1009.15 1008.50 1007.54 1005.98 1005.51 1003.93 1002.72 1002.81 1003.04 1002.54 1002.42
1016.80 1016.17 1015.60 1015.18 1015.30 1014.79 1013.89 1013.45 1013.43 1013.89 1013.95 1012.25 1011.32 1010.25 1010.38 1010.91 1011.03 1010.40 1010.03 1010.25 1011.10 1011.36 1012.10 1011.41 1010.91 1010.40 1009.99 1009.42 1009.53 1009.04 1009.01 1009.07 1009.21 1009.36 1009.25 1009.11 1008.87 1004.44 1005.36 1003.89 1002.52 1002.03 1002.25 1001.62 1001.73
1016.30 1015.84 1015.52 1015.34 1015.31 1013.99 1013.45 1013.42 1013.78 1014.61 1013.86 1012.62 1011.75 1011.13 1011.44 1011.10 1011.12 1010.77 1010.61 1010.81 1011.23 1011.71 1011.85 1011.67 1010.68 1010.29 1009.63 1008.92 1008.98 1008.85 1008.88 1009.10 1009.60 1010.15 1009.86 1009.24 1008.63 1003.87 1004.39 1003.27 1002.23 1001.42 1001.81 1000.95 1000.56
1015.91 1015.18 1015.24 1014.87 1014.30 1013.51 1013.38 1014.06 1014.89 1014.75 1014.07 1013.43 1012.77 1012.25 1012.32 1012.17 1011.82 1011.59 1011.59 1011.91 1012.53 1012.85 1012.49 1011.66 1010.70 1009.78 1009.22 1008.95 1008.61 1009.01 1009.49 1010.21 1010.85 1011.02 1010.15 1008.91 1007.91 1005.40 1004.17 1003.46 1002.49 1001.09 1001.30 1000.80 1000.01
1015.75 1015.01 1014.83 1014.03 1013.67 1013.60 1014.01 1014.79 1015.36 1015.11 1014.50 1013.71 1013.12 1012.79 1012.85 1012.82 1012.77 1012.56 1012.49 1012.75 1013.06 1013.32 1013.29 1012.87 1010.98 1010.31 1009.41 1009.72 1009.67 1009.36 1010.07 1010.74 1010.93 1011.08 1010.67 1009.17 1007.16 1004.81 1003.51 1003.01 1002.49 1001.44 1001.32 1000.46 1000.05
1015.95 1015.15 1014.93 1013.92 1013.57 1013.77 1014.95 1016.07 1015.83 1015.16 1014.42 1013.95 1013.52 1013.17 1013.08 1013.11 1013.16 1013.26 1013.09 1013.00 1012.94 1013.31 1013.83 1013.22 1011.53 1010.21 1009.57 1008.81 1009.11 1009.01 1009.63 1010.17 1010.94 1011.10 1010.87 1009.20 1006.69 1004.41 1003.11 1002.91 1002.25 1001.53 1001.11 1001.05 1000.19
1017.80 1016.61 1015.06 1013.72 1013.58 1014.41 1015.70 1016.57 1015.86 1014.85 1014.37 1013.89 1014.01 1013.85 1013.77 1013.56 1013.71 1013.55 1013.21 1012.81 1012.81 1012.81 1013.02 1013.25 1011.73 1010.13 1008.80 1008.45 1007.81 1008.37 1009.17 1010.44 1011.05 1011.36 1010.57 1008.61 1007.01 1004.93 1004.01 1003.41 1002.67 1001.87 1001.28 1000.56 1000.02
1018.37 1016.94 1014.67 1014.07 1014.04 1015.62 1017.14 1016.91 1015.68 1014.56 1014.39 1014.09 1013.91 1013.94 1014.13 1013.96 1013.94 1013.76 1013.31 1012.58 1012.37 1012.49 1013.00 1013.05 1012.67 1010.57 1009.91 1008.65 1008.32 1008.66 1009.05 1009.94 1010.45 1010.39 1009.87 1008.55 1006.40 1004.67 1004.18 1003.62 1003.17 1002.37 1001.57 1000.43 999.77
1020.23 1018.16 1015.19 1014.45 1015.97 1017.74 1018.17 1017.55 1016.22 1014.85 1014.45 1013.97 1013.87 1014.17 1014.19 1014.24 1014.05 1013.73 1013.22 1012.57 1011.76 1012.32 1012.98 1013.02 1012.83 1011.44 1009.74 1007.82 1007.84 1008.32 1008.66 1009.19 1009.87 1010.07 1009.78 1008.29 1005.93 1004.53 1003.98 1003.53 1003.28 1002.47 1001.67 1000.38 999.76
1021.36 1019.63 1016.35 1015.99 1018.41 1019.13 1018.65 1017.92 1016.73 1015.30 1014.88 1014.41 1014.47 1014.33 1014.40 1014.52 1014.49 1013.56 1012.88 1011.89 1012.02 1012.35 1012.36 1012.74 1012.72 1011.46 1009.54 1008.39 1007.85 1007.98 1008.39 1008.73 1009.40 1009.50 1008.96 1007.99 1005.51 1004.18 1003.57 1003.26 1002.99 1002.15 1001.49 1000.39 999.49
1021.97 1020.93 1019.26 1019.15 1019.92 1020.29 1019.97 1018.58 1017.29 1016.05 1015.44 1015.22 1015.19 1014.69 1014.94 1014.80 1014.26 1013.69 1012.97 1011.99 1011.76 1011.87 1011.91 1012.42 1012.43 1012.01 1010.94 1009.39 1008.97 1008.59 1008.09 1008.47 1009.27 1009.01 1007.90 1006.41 1004.87 1004.12 1003.39 1002.89 1002.75 1002.67 1001.92 1000.39 999.36
1022.49 1022.09 1021.51 1021.23 1020.70 1020.75 1020.76 1019.25 1017.95 1017.29 1016.27 1015.86 1015.39 1015.49 1015.97 1015.47 1014.55 1013.45 1012.89 1012.35 1011.55 1011.38 1011.89 1012.42 1011.97 1011.54 1010.72 1009.82 1009.02 1007.78 1007.73 1008.05 1008.36 1008.38 1007.63 1005.81 1004.73 1003.78 1003.23 1002.76 1002.35 1002.48 1001.82 1000.32 999.27
1022.73 1022.62 1022.04 1021.74 1021.25 1020.70 1020.15 1019.14 1018.55 1017.71 1017.44 1016.35 1016.25 1015.73 1015.62 1015.59 1014.90 1013.74 1013.29 1012.47 1011.90 1011.75 1012.13 1012.15 1011.86 1011.27 1010.37 1009.45 1008.67 1007.25 1006.89 1007.39 1007.18 1007.30 1007.01 1006.30 1004.79 1003.79 1002.51 1001.78 1001.86 1002.02 1001.57 1000.75 999.21
1022.63 1022.29 1022.47 1021.40 1021.02 1020.76 1019.84 1019.09 1018.48 1018.29 1016.97 1016.56 1016.26 1015.78 1015.01 1014.15 1013.86 1012.81 1012.06 1011.35 1011.47 1011.55 1011.67 1012.12 1012.19 1011.72 1010.03 1009.54 1008.50 1007.03 1006.58 1007.27 1007.03 1006.87 1006.61 1005.70 1005.31 1004.57 1003.42 1002.63 1002.01 1001.36 1000.79 1000.15 999.37
Wind_Speed
18 17 16 14 13 13 13 14 14 15 14 14 14 13 12 12 13 2 3 6 4 9 10 8 3 8 3 0 2 3 4 4 4 2 5 7 7 2 4 5 10 5 18 19 20
19 18 16 15 14 13 13 14 14 15 14 14 15 14 13 13 2 1 6 6 6 6 6 8 7 10 4 1 1 4 4 6 7 4 7 15 5 14 6 9 10 10 21 14 25
20 19 17 15 14 13 13 13 13 14 14 15 15 14 13 8 2 4 3 6 6 3 3 2 3 1 3 4 1 1 5 7 7 12 9 15 10 8 8 6 5 8 7 6 2
21 19 17 16 15 13 13 13 13 13 13 14 15 15 14 2 4 4 7 7 5 2 4 4 4 5 4 4 3 3 8 5 7 7 7 9 7 13 7 9 7 7 4 6 7
21 19 18 16 15 15 14 13 12 12 12 13 14 14 6 4 2 7 7 4 2 1 3 3 5 3 3 5 7 4 3 7 9 11 8 10 8 11 10 10 7 6 5 3 7
21 20 17 16 15 14 14 12 12 12 11 11 12 10 2 3 4 5 3 2 5 2 3 1 2 5 3 4 1 5 6 11 7 8 6 7 8 1 2 7 5 3 6 7 11
18 18 18 15 13 12 11 9 9 10 10 9 9 4 2 5 2 4 5 5 3 4 3 3 2 1 1 6 2 5 8 7 2 5 6 9 16 12 2 7 1 3 7 6 9
20 18 19 17 14 13 12 9 8 8 8 6 5 2 5 4 3 5 4 7 6 6 3 6 2 2 2 3 8 5 3 5 7 6 4 4 17 10 10 13 9 5 6 8 9
21 19 18 17 14 14 13 11 9 7 5 4 1 2 7 8 3 7 7 4 4 4 3 4 2 0 6 3 6 4 5 5 5 3 2 4 16 13 13 10 11 8 5 7 6
22 20 18 17 17 14 14 5 2 1 2 3 3 2 5 3 5 3 5 5 5 4 5 3 5 1 3 4 5 7 6 7 6 5 4 6 20 17 8 11 15 9 7 7 7
24 21 19 16 15 12 6 2 5 3 2 5 5 4 7 6 4 2 4 2 2 1 2 3 1 6 13 9 12 7 9 15 13 9 3 14 14 16 14 14 18 10 8 8 10
24 23 20 17 12 6 2 3 5 5 6 7 7 7 9 4 5 7 6 3 1 5 3 5 7 13 9 9 11 11 13 14 12 11 7 9 15 18 17 13 18 10 12 9 6
25 24 21 18 11 3 1 5 3 3 2 7 5 4 7 5 4 6 8 3 5 4 6 5 13 15 11 7 8 7 10 14 15 10 5 8 13 11 18 14 17 6 11 8 11
27 23 21 17 1 2 4 3 2 1 5 4 4 3 7 2 3 3 2 1 3 6 5 7 7 8 17 18 11 12 9 16 12 6 7 6 14 16 10 18 16 7 6 9 8
29 24 16 7 2 2 2 4 2 5 5 5 3 5 8 5 3 6 2 1 7 12 3 12 12 18 17 14 11 8 11 10 7 6 3 1 1 18 5 18 18 6 9 10 10
31 24 11 0 1 6 6 3 5 7 2 4 3 7 7 4 7 4 4 4 1 3 3 10 13 6 6 11 12 13 4 4 4 2 5 5 7 18 7 7 6 6 2 9 10
33 24 3 1 4 3 3 5 6 6 6 5 5 5 5 5 8 3 5 6 2 7 8 13 6 6 5 6 4 2 4 3 4 3 7 4 7 9 15 12 11 15 10 8 10
34 15 3 4 2 5 4 7 5 1 5 5 5 6 3 5 5 6 7 5 4 3 3 6 9 7 4 6 7 9 6 5 6 3 4 6 8 7 4 6 11 11 11 6 9
24 5 4 5 1 3 7 6 4 3 3 6 7 3 3 3 3 4 5 3 4 4 0 6 7 12 14 10 6 1 4 3 3 3 1 5 8 9 4 10 15 17 15 10 10
4 4 5 9 2 6 7 3 3 4 6 5 4 2 4 5 2 4 3 4 3 6 7 5 15 9 7 6 4 5 5 3 3 4 4 5 6 9 7 12 15 19 18 19 13
5 5 5 8 4 7 3 5 6 10 7 3 5 6 6 4 4 3 6 7 4 4 6 2 6 7 7 3 3 1 1 1 4 3 4 3 5 3 3 3 10 16 16 18 20
5 4 5 6 7 2 2 7 7 5 5 6 4 3 6 6 5 6 8 8 5 4 4 2 4 7 13 21 14 7 4 6 4 3 4 3 8 3 2 4 7 15 18 21 21
4 4 5 6 5 5 6 7 5 4 6 3 4 3 4 4 6 4 6 8 4 7 6 6 4 6 9 6 4 3 4 2 2 2 7 4 5 7 7 3 6 15 20 24 23
3 5 6 6 0 3 5 6 6 6 7 7 13 4 5 5 4 8 8 5 5 7 7 8 4 6 7 13 3 9 14 15 8 4 6 11 16 8 6 3 2 8 16 23 22
4 2 3 5 4 7 4 5 5 6 4 6 6 4 12 7 7 6 5 8 5 7 5 6 7 11 18 21 20 23 21 18 13 8 9 9 18 14 13 12 6 3 18 22 21
2 3 4 4 4 3 4 4 2 9 3 8 5 18 14 9 12 20 10 11 9 3 4 1 5 4 10 15 14 21 19 16 16 13 16 17 22 12 12 9 3 8 13 16 15
2 2 0 4 3 3 4 4 16 11 9 5 13 15 15 13 11 21 19 19 13 6 9 5 2 4 7 6 12 10 4 1 2 4 12 9 5 10 11 12 5 5 10 16 10
Wind_Direction
351 349 344 340 337 335 335 336 336 336 339 339 341 337 331 321 318 137 240 219 226 319 326 293 17 353 103 206 188 106 62 235 249 275 278 297 335 139 267 317 313 281 298 251 148
350 347 342 337 332 328 327 329 332 335 337 337 337 330 326 330 329 292 235 246 262 319 10 19 355 350 3 283 19 107 138 234 205 223 268 281 251 297 299 309 290 326 351 141 150
350 348 342 335 330 325 321 324 327 335 334 336 333 328 322 326 346 317 242 231 260 334 337 314 289 1 329 11 294 171 212 235 256 254 254 276 280 270 268 260 261 306 339 13 309
353 349 344 337 330 324 316 319 321 329 334 332 329 326 324 259 50 275 219 230 249 257 327 328 5 21 318 352 307 299 256 255 303 309 307 283 276 279 239 252 236 268 269 176 257
351 349 345 341 335 328 319 313 315 321 329 328 328 334 349 20 275 256 227 252 269 253 266 339 46 18 342 299 324 210 329 310 286 291 274 275 266 258 261 250 242 257 250 230 242
351 351 347 344 339 332 323 313 309 314 321 323 323 328 11 47 242 250 203 257 231 230 265 256 286 231 241 280 202 291 279 288 298 284 269 275 271 272 258 235 239 229 156 192 240
344 345 345 341 335 323 317 304 297 304 311 313 320 335 8 231 269 265 173 215 216 202 250 271 197 86 338 310 260 256 300 314 301 315 301 312 299 235 3 322 108 146 185 232 261
343 344 345 338 329 318 310 305 288 286 288 293 312 7 253 258 325 276 185 280 234 219 212 243 179 214 182 297 341 345 22 3 299 356 327 30 279 321 8 329 327 244 188 200 245
342 343 340 336 327 318 311 304 283 262 253 259 22 65 282 314 257 252 175 234 279 277 268 258 93 93 9 44 349 339 268 274 311 284 249 85 285 293 328 313 315 285 200 194 216
341 341 337 333 324 318 312 291 134 224 198 201 246 344 276 281 253 209 211 207 249 304 346 37 42 15 22 85 255 268 284 269 274 278 304 259 268 290 316 303 306 302 265 184 202
340 337 333 330 322 319 339 115 17 3 152 205 220 254 279 274 279 269 201 176 258 32 270 312 107 233 253 222 245 260 268 268 272 272 233 271 275 298 306 298 295 300 269 208 202
339 336 333 327 322 323 281 93 203 205 317 230 248 247 258 211 287 285 131 190 181 264 329 352 237 239 249 255 238 244 246 257 267 255 181 258 277 286 284 271 276 277 271 225 177
340 338 336 331 330 120 276 235 334 100 87 298 218 234 259 131 237 262 152 200 228 253 270 222 258 286 276 268 304 241 242 261 268 284 261 259 274 278 286 286 275 245 243 232 191
342 340 337 332 70 270 288 298 21 55 63 304 332 294 348 355 326 266 200 233 292 267 284 251 265 295 293 281 270 258 228 252 268 280 276 149 285 279 287 276 270 248 236 240 194
343 341 339 332 272 327 296 1 87 55 51 309 5 288 319 59 318 349 314 353 255 283 136 261 297 307 292 270 257 260 260 262 276 277 305 212 309 275 305 287 279 250 217 229 193
336 341 338 348 43 248 321 3 62 45 311 340 344 325 356 12 329 311 305 23 348 318 263 265 290 262 237 290 246 253 304 339 31 44 262 222 225 286 248 253 287 278 220 230 207
334 334 297 140 251 338 348 53 35 92 343 307 289 314 316 310 317 24 310 344 47 357 326 326 290 288 235 291 332 75 68 334 323 2 249 208 302 257 291 308 295 289 297 229 237
332 329 215 237 357 12 47 49 64 21 268 288 274 285 269 329 294 321 312 319 223 157 298 323 325 356 2 311 295 297 174 180 217 207 274 292 264 260 229 350 350 348 6 331 258
327 341 351 281 250 78 63 50 208 249 281 292 314 272 275 263 262 341 270 242 238 166 113 300 268 304 283 283 180 197 171 214 11 297 190 241 285 287 301 354 354 348 352 351 332
337 347 290 309 98 61 71 255 263 226 325 295 274 278 283 266 300 328 290 250 258 188 146 226 290 261 282 307 232 187 149 66 73 237 259 264 269 245 352 344 344 342 342 340 333
15 19 267 341 55 47 99 247 283 319 338 296 262 261 257 280 254 250 262 284 240 210 172 244 234 292 329 245 239 168 188 159 171 197 212 287 256 352 319 327 327 323 324 333 330
338 5 314 4 51 47 345 305 293 301 331 291 329 303 251 308 253 267 232 211 245 165 213 131 272 280 278 290 261 241 283 178 155 270 261 255 262 238 99 337 335 321 326 325 321
353 279 323 46 57 331 316 299 267 300 317 341 304 291 321 286 320 253 253 265 181 169 212 165 249 296 322 341 57 128 301 171 67 135 215 232 253 235 248 319 350 334 329 318 311
19 347 330 40 322 98 333 284 311 322 303 11 298 298 358 299 251 276 290 281 211 215 202 154 230 227 255 259 256 275 268 267 271 212 275 243 284 283 329 263 89 342 308 300 303
23 278 187 306 326 326 230 253 294 351 300 334 314 354 336 293 280 241 276 308 240 242 177 181 238 232 255 271 278 272 272 273 261 238 245 288 277 285 287 267 205 159 288 296 296
62 7 353 272 275 294 316 284 353 337 290 310 337 307 301 265 259 287 300 291 257 76 155 227 273 272 277 275 272 277 273 276 263 267 271 262 271 276 274 284 202 188 261 277 286
301 327 270 259 282 328 238 276 311 313 286 235 305 300 294 275 293 283 276 270 248 196 201 179 284 305 283 322 305 288 324 39 327 328 297 264 309 330 326 315 289 215 270 278 275